AKST,Max TemperatureF,Mean TemperatureF,Min TemperatureF,Max Dew PointF,MeanDew PointF,Min DewpointF,Max Humidity, Mean Humidity, Min Humidity, Max Sea Level PressureIn, Mean Sea Level PressureIn, Min Sea Level PressureIn, Max VisibilityMiles, Mean VisibilityMiles, Min VisibilityMiles, Max Wind SpeedMPH, Mean Wind SpeedMPH, Max Gust SpeedMPH,PrecipitationIn, CloudCover, Events, WindDirDegrees
2012-1-1,44,40,37,40,33,26,89,76,62,29.65,29.24,29.05,10,9,4,29,22,43,0.46,8,Rain,119
2012-1-2,39,36,32,37,29,23,89,76,57,29.70,29.54,29.27,10,9,2,21,13,31,0.09,7,Rain-Snow,246
2012-1-3,46,40,34,40,34,25,89,76,57,29.58,29.20,29.03,10,9,2,23,12,37,0.27,7,Rain,109
2012-1-4,42,40,37,39,37,36,100,93,81,29.34,29.08,28.85,10,8,3,13,6,23,0.94,8,Rain,105
2012-1-5,39,36,33,37,31,24,100,80,62,30.05,29.78,29.39,10,9,5,24,10,29,0.20,5,Rain-Snow,286
2012-1-6,42,39,36,39,32,23,100,79,57,29.90,29.71,29.58,10,8,2,21,15,30,0.11,7,Rain,144
2012-1-7,46,42,39,43,39,31,93,85,70,29.65,29.28,29.15,10,7,2,34,20,53,0.34,8,Rain,151
2012-1-8,43,39,35,39,36,32,93,87,73,29.69,29.55,29.36,10,6,2,30,20,51,0.69,8,Rain-Snow,191
2012-1-9,35,32,30,32,27,19,93,81,52,30.48,30.06,29.70,10,6,0,37,17,43,0.10,7,Snow,294
2012-1-10,37,34,30,34,29,23,87,78,59,30.50,30.38,30.21,10,8,2,23,13,32,0.09,8,Rain-Snow,110
2012-1-11,44,40,37,40,37,33,100,90,76,30.20,30.07,29.81,10,6,1,24,16,32,1.02,8,Rain,118
2012-1-12,41,37,33,37,33,20,93,83,54,30.05,29.79,29.50,10,7,2,25,20,37,0.77,8,Rain-Snow,215
2012-1-13,34,29,24,28,26,21,100,87,64,30.08,29.98,29.82,10,5,0,21,11,36,0.20,7,Fog-Snow,140
2012-1-14,30,24,19,24,14,8,89,64,51,30.34,30.07,29.84,10,10,10,21,7,20,0.00,1,,62
2012-1-15,24,20,14,11,-1,-9,68,43,30,30.47,30.42,30.34,10,10,10,15,6,29,0.00,0,,39
2012-1-16,14,11,8,-5,-9,-12,50,40,31,30.47,30.44,30.41,10,10,10,14,6,24,0.00,0,,38
2012-1-17,10,8,6,-6,-8,-12,58,46,37,30.41,30.33,30.27,10,10,10,10,5,,0.00,0,,70
2012-1-18,21,16,10,2,-3,-9,54,44,35,30.25,30.08,29.94,10,10,10,10,6,,0.00,0,,80
2012-1-19,25,20,14,7,-1,-5,56,42,33,29.92,29.66,29.33,10,10,10,28,9,43,0.00,3,,89
2012-1-20,37,30,23,23,19,12,74,60,50,29.31,28.96,28.61,10,7,2,29,20,46,0.01,8,Rain-Snow,89
2012-1-21,39,36,32,36,29,21,93,78,57,29.02,28.68,28.53,10,6,1,30,16,44,0.31,8,Rain-Snow,137
2012-1-22,37,34,32,31,28,25,89,80,64,29.14,29.09,29.02,10,7,1,26,13,37,0.09,7,Rain-Snow,140
2012-1-23,36,33,30,32,30,26,100,88,73,29.21,29.16,29.06,10,5,0,17,9,24,0.19,8,Fog-Snow,112
2012-1-24,37,34,32,36,33,27,100,90,67,28.99,28.62,28.48,10,8,0,12,6,18,0.63,8,Fog-Rain-Snow,17
2012-1-25,37,32,28,32,28,21,100,82,64,29.57,29.29,28.59,10,6,0,31,17,46,0.41,8,Fog-Rain-Snow,218
2012-1-26,37,32,26,30,24,17,96,80,57,29.86,29.72,29.59,10,5,0,44,20,59,0.08,7,Fog-Snow-Thunderstorm,252
2012-1-27,30,29,28,28,25,20,100,86,66,30.14,29.99,29.83,10,5,0,34,10,43,0.21,8,Fog-Snow,121
2012-1-28,36,33,30,35,30,25,100,86,64,29.94,29.38,29.11,10,9,5,8,3,,0.08,8,Rain-Snow,25
2012-1-29,36,33,30,36,33,28,100,98,82,29.39,29.22,29.12,10,6,1,16,6,,0.52,8,Rain-Snow,326
2012-1-30,39,36,32,37,33,27,96,89,70,29.40,29.30,29.23,10,8,2,20,10,28,0.41,8,Rain-Snow,132
2012-1-31,37,34,32,36,34,32,100,96,83,29.66,29.44,29.36,10,8,4,15,7,24,0.47,8,Rain-Snow,107